K5GJ Weather Reports


Display with metric or nautical units.
time (UTC)temp
F
wind
direction
speed
MPH
gust
MPH
rain 1hr
in
rain 24hr
in
rain mn
in
humidity
%
barometer
mb
20240522153204 86 193 1.0 9.0 0.00 0.00 0.00 81 1012.8
20240522152703 85 202 2.0 9.0 0.00 0.00 0.00 80 1012.8
20240522152201 86 178 2.0 9.0 0.00 0.00 0.00 80 1012.9
20240522151702 85 151 3.0 6.0 0.00 0.00 0.00 81 1013.0
20240522151202 85 173 2.0 10.0 0.00 0.00 0.00 82 1013.0
20240522150701 85 171 3.0 10.0 0.00 0.00 0.00 81 1013.0
20240522150201 84 166 4.0 10.0 0.00 0.00 0.00 82 1013.1
20240522145701 85 175 1.0 4.0 0.00 0.00 0.00 84 1013.3
20240522145201 84 185 1.0 4.0 0.00 0.00 0.00 84 1013.2
20240522144702 84 178 2.0 4.0 0.00 0.00 0.00 84 1013.4
20240522144202 84 189 1.0 5.0 0.00 0.00 0.00 85 1013.3
20240522143700 83 176 1.0 5.0 0.00 0.00 0.00 85 1013.2
20240522143200 83 169 1.0 3.0 0.00 0.00 0.00 86 1013.1
20240522142701 83 118 1.0 2.0 0.00 0.00 0.00 85 1013.2
20240522142159 83 179 1.0 3.0 0.00 0.00 0.00 86 1013.3
20240522141700 83 185 1.0 3.0 0.00 0.00 0.00 86 1013.3
20240522141200 82 199 1.0 2.0 0.00 0.00 0.00 87 1013.3
20240522140659 82 161 0.0 2.0 0.00 0.00 0.00 87 1013.3
20240522140200 82 224 0.0 2.0 0.00 0.00 0.00 87 1013.2
20240522135700 82 179 0.0 3.0 0.00 0.00 0.00 87 1013.2
20240522135159 82 188 1.0 3.0 0.00 0.00 0.00 88 1013.3
20240522134659 82 178 0.0 2.0 0.00 0.00 0.00 88 1013.3
20240522134159 82 195 0.0 2.0 0.00 0.00 0.00 88 1013.2
20240522133658 81 169 1.0 3.0 0.00 0.00 0.00 88 1013.1
20240522133200 81 188 1.0 3.0 0.00 0.00 0.00 88 1013.1
20240522132659 81 165 1.0 3.0 0.00 0.00 0.00 88 1013.0
20240522132159 81 190 0.0 3.0 0.00 0.00 0.00 89 1012.8
20240522131700 81 189 2.0 4.0 0.00 0.00 0.00 89 1012.8
20240522131159 81 169 1.0 4.0 0.00 0.00 0.00 90 1012.9
20240522130701 80 196 1.0 3.0 0.00 0.00 0.00 90 1012.9
20240522130159 80 190 0.0 3.0 0.00 0.00 0.00 90 1012.8
20240522125658 80 192 0.0 3.0 0.00 0.00 0.00 90 1012.7
20240522125158 80 193 0.0 2.0 0.00 0.00 0.00 91 1012.7
20240522124658 80 193 0.0 2.0 0.00 0.00 0.00 91 1012.7
20240522124159 80 189 0.0 1.0 0.00 0.00 0.00 91 1012.7
20240522123700 79 189 0.0 1.0 0.00 0.00 0.00 91 1012.7
20240522123158 79 189 0.0 2.0 0.00 0.00 0.00 91 1012.6
20240522122657 79 189 0.0 2.0 0.00 0.00 0.00 91 1012.6
20240522122158 79 176 0.0 2.0 0.00 0.00 0.00 91 1012.4
20240522121657 79 176 0.0 2.0 0.00 0.00 0.00 91 1012.4
20240522121156 79 169 0.0 1.0 0.00 0.00 0.00 91 1012.5
20240522120659 79 169 0.0 0.0 0.00 0.00 0.00 91 1012.4
20240522120158 79 169 0.0 0.0 0.00 0.00 0.00 91 1012.4
20240522115657 79 169 0.0 0.0 0.00 0.00 0.00 91 1012.3
20240522115158 78 169 0.0 0.0 0.00 0.00 0.00 91 1012.3
20240522114657 79 169 0.0 0.0 0.00 0.00 0.00 91 1012.4
20240522114156 78 169 0.0 1.0 0.00 0.00 0.00 91 1012.1
20240522113657 78 169 0.0 1.0 0.00 0.00 0.00 91 1012.0
20240522113156 78 169 0.0 0.0 0.00 0.00 0.00 91 1012.0
20240522112657 78 169 0.0 0.0 0.00 0.00 0.00 91 1012.1
20240522112157 78 169 0.0 0.0 0.00 0.00 0.00 91 1011.9
20240522111657 79 169 0.0 0.0 0.00 0.00 0.00 90 1011.8
20240522111156 79 169 0.0 0.0 0.00 0.00 0.00 90 1011.8
20240522110656 79 169 0.0 0.0 0.00 0.00 0.00 90 1011.6
20240522110155 79 199 0.0 0.0 0.00 0.00 0.00 90 1011.8
20240522105655 79 199 0.0 1.0 0.00 0.00 0.00 90 1011.9
20240522105156 79 199 0.0 1.0 0.00 0.00 0.00 89 1011.6
20240522104657 79 199 0.0 1.0 0.00 0.00 0.00 89 1011.5
20240522104156 79 199 0.0 1.0 0.00 0.00 0.00 89 1011.5
20240522103655 80 199 0.0 1.0 0.00 0.00 0.00 89 1011.6
20240522103155 80 190 0.0 1.0 0.00 0.00 0.00 89 1011.4
20240522102700 80 196 0.0 2.0 0.00 0.00 0.00 89 1011.6
20240522102155 80 196 0.0 2.0 0.00 0.00 0.00 89 1011.7
20240522101654 80 200 0.0 1.0 0.00 0.00 0.00 89 1011.7
20240522101155 80 200 0.0 1.0 0.00 0.00 0.00 89 1011.6
20240522100654 80 200 0.0 1.0 0.00 0.00 0.00 88 1011.7
20240522100154 80 200 0.0 1.0 0.00 0.00 0.00 88 1011.5
20240522095654 80 200 0.0 2.0 0.00 0.00 0.00 88 1011.4
20240522095154 80 200 0.0 5.0 0.00 0.00 0.00 88 1011.3
20240522094654 80 203 0.0 5.0 0.00 0.00 0.00 88 1011.3
20240522094153 80 190 0.0 2.0 0.00 0.00 0.00 88 1011.3
20240522093653 80 190 0.0 4.0 0.00 0.00 0.00 88 1011.3
20240522093154 80 192 2.0 5.0 0.00 0.00 0.00 88 1011.1
20240522092653 80 188 1.0 5.0 0.00 0.00 0.00 88 1011.0
20240522092153 80 197 0.0 3.0 0.00 0.00 0.00 88 1011.1
20240522091653 80 166 1.0 4.0 0.00 0.00 0.00 88 1011.0
20240522091153 80 178 1.0 4.0 0.00 0.00 0.00 88 1010.9
20240522090653 80 179 1.0 5.0 0.00 0.00 0.00 88 1011.0
20240522090153 80 183 2.0 5.0 0.00 0.00 0.00 88 1011.1
20240522085653 80 169 1.0 3.0 0.00 0.00 0.00 87 1011.0
20240522085154 80 176 1.0 4.0 0.00 0.00 0.00 87 1011.1
20240522084652 80 178 1.0 6.0 0.00 0.00 0.00 87 1011.1
20240522084152 80 164 1.0 10.0 0.00 0.00 0.00 87 1011.2
20240522083655 80 179 3.0 10.0 0.00 0.00 0.00 87 1011.3
20240522083153 80 166 3.0 7.0 0.00 0.00 0.00 87 1011.2
20240522082652 80 193 1.0 6.0 0.00 0.00 0.00 87 1011.1
20240522082152 80 176 1.0 6.0 0.00 0.00 0.00 87 1011.1
20240522081652 80 157 3.0 9.0 0.00 0.00 0.00 87 1011.1
20240522081151 80 185 3.0 9.0 0.00 0.00 0.00 87 1011.0
20240522080652 80 182 1.0 10.0 0.00 0.00 0.00 87 1011.0
20240522080153 80 192 3.0 10.0 0.00 0.00 0.00 87 1011.0
20240522075652 80 173 1.0 9.0 0.00 0.00 0.00 87 1011.0
20240522075153 80 220 3.0 9.0 0.00 0.00 0.00 87 1011.0
20240522074650 80 214 2.0 6.0 0.00 0.00 0.00 87 1011.1
20240522074152 80 195 1.0 6.0 0.00 0.00 0.00 87 1011.1
20240522073651 80 203 2.0 10.0 0.00 0.00 0.00 87 1011.1
20240522073150 80 200 0.0 10.0 0.00 0.00 0.00 87 1011.1
20240522073031 80 172 2.0 6.0 0.00 0.00 0.00 88 1011.1
20240522072930 80 207 2.0 6.0 0.00 0.00 0.00 88 1011.1
20240522072805 80 214 3.0 6.0 0.00 0.00 0.00 88 1011.1
20240522072641 80 221 2.0 13.0 0.00 0.00 0.00 88 1011.3
20240522072517 80 206 2.0 13.0 0.00 0.00 0.00 88 1011.2
20240522070650 80 172 2.0 6.0 0.00 0.00 0.00 88 1011.1
20240522070150 80 192 2.0 6.0 0.00 0.00 0.00 88 1011.1
20240522065650 80 178 2.0 6.0 0.00 0.00 0.00 88 1011.2
20240522065149 80 180 2.0 9.0 0.00 0.00 0.00 88 1011.1
20240522064649 80 188 3.0 9.0 0.00 0.00 0.00 88 1011.2
20240522064150 80 179 4.0 9.0 0.00 0.00 0.00 88 1011.3
20240522063650 80 188 1.0 4.0 0.00 0.00 0.00 88 1011.4
20240522063149 80 173 0.0 7.0 0.00 0.00 0.00 88 1011.6
20240522062650 80 138 1.0 7.0 0.00 0.00 0.00 88 1011.5
20240522062150 80 176 2.0 5.0 0.00 0.00 0.00 88 1011.6
20240522061649 80 237 1.0 6.0 0.00 0.00 0.00 88 1011.6
20240522061150 80 166 3.0 6.0 0.00 0.00 0.00 88 1011.6
20240522060649 80 200 0.0 4.0 0.00 0.00 0.00 88 1011.7
20240522060149 80 193 1.0 4.0 0.00 0.00 0.00 87 1011.7
20240522055648 80 168 0.0 7.0 0.00 0.00 0.00 87 1011.6
20240522055149 80 168 1.0 7.0 0.00 0.00 0.00 87 1011.6
20240522054648 80 157 1.0 6.0 0.00 0.00 0.00 87 1011.7
20240522054149 80 165 1.0 5.0 0.00 0.00 0.00 87 1011.8
20240522053649 80 189 2.0 7.0 0.00 0.00 0.00 87 1012.0
20240522053148 80 123 1.0 7.0 0.00 0.00 0.00 87 1011.9
20240522052648 80 171 2.0 5.0 0.00 0.00 0.00 87 1011.9
20240522052148 80 168 1.0 5.0 0.00 0.00 0.00 87 1011.9
20240522051647 80 165 1.0 5.0 0.00 0.00 0.00 87 1011.8
20240522051148 80 173 2.0 5.0 0.00 0.00 0.00 87 1011.8
20240522050647 80 180 1.0 4.0 0.00 0.00 0.00 88 1011.9
20240522050148 80 171 1.0 4.0 0.00 0.00 0.00 87 1011.8
20240522045648 80 171 1.0 4.0 0.00 0.00 0.00 87 1011.9
20240522045148 80 173 1.0 4.0 0.00 0.00 0.00 87 1012.0
20240522044647 80 173 0.0 3.0 0.00 0.00 0.00 87 1012.0
20240522044148 81 155 1.0 4.0 0.00 0.00 0.00 86 1012.0
20240522043646 81 166 0.0 4.0 0.00 0.00 0.00 86 1012.2
20240522043146 81 199 1.0 4.0 0.00 0.00 0.00 86 1012.2
20240522042647 81 193 1.0 4.0 0.00 0.00 0.00 86 1012.3
20240522042148 81 173 0.0 4.0 0.00 0.00 0.00 86 1012.5
20240522041646 81 192 1.0 4.0 0.00 0.00 0.00 86 1012.6
20240522041146 81 178 1.0 5.0 0.00 0.00 0.00 86 1012.3
20240522040647 81 193 1.0 5.0 0.00 0.00 0.00 86 1012.6
20240522040147 81 192 0.0 9.0 0.00 0.00 0.00 86 1012.7
20240522035645 81 193 1.0 9.0 0.00 0.00 0.00 85 1012.4
20240522035147 81 183 1.0 9.0 0.00 0.00 0.00 85 1012.1
20240522034646 81 171 4.0 9.0 0.00 0.00 0.00 85 1012.2
20240522034146 81 196 1.0 4.0 0.00 0.00 0.00 85 1012.0
20240522033646 81 180 2.0 7.0 0.00 0.00 0.00 85 1011.7
20240522033146 81 137 2.0 7.0 0.00 0.00 0.00 85 1011.6
20240522032646 81 152 2.0 5.0 0.00 0.00 0.00 86 1011.7
20240522032147 81 179 1.0 6.0 0.00 0.00 0.00 86 1011.5
20240522031645 81 176 2.0 6.0 0.00 0.00 0.00 86 1011.4
20240522031145 81 173 0.0 3.0 0.00 0.00 0.00 87 1011.7
20240522030645 81 186 0.0 3.0 0.00 0.00 0.00 87 1011.4
20240522030145 82 168 1.0 4.0 0.00 0.00 0.00 87 1011.2
20240522025648 81 185 1.0 4.0 0.00 0.00 0.00 87 1011.1
20240522025145 81 176 2.0 3.0 0.00 0.00 0.00 87 1010.9
20240522024644 81 182 1.0 5.0 0.00 0.00 0.00 87 1010.8
20240522024144 81 185 1.0 5.0 0.00 0.00 0.00 87 1010.6
20240522023644 81 188 2.0 5.0 0.00 0.00 0.00 87 1010.6
20240522023144 81 162 1.0 5.0 0.00 0.00 0.00 87 1010.6
20240522022644 81 179 1.0 5.0 0.00 0.00 0.00 87 1010.7
20240522022144 81 200 0.0 2.0 0.00 0.00 0.00 87 1010.8
20240522021644 81 204 0.0 4.0 0.00 0.00 0.00 87 1010.8
20240522021145 82 171 0.0 4.0 0.00 0.00 0.00 87 1010.8
20240522020643 82 188 1.0 3.0 0.00 0.00 0.00 86 1010.6
20240522020144 82 210 1.0 6.0 0.00 0.00 0.00 86 1010.7
20240522015643 82 190 1.0 6.0 0.00 0.00 0.00 86 1010.6
20240522015144 82 203 1.0 3.0 0.00 0.00 0.00 86 1010.5
20240522014644 82 0 1.0 3.0 0.00 0.00 0.00 85 1010.5
20240522014142 82 186 0.0 7.0 0.00 0.00 0.00 85 1010.6
20240522013642 82 159 1.0 7.0 0.00 0.00 0.00 85 1010.4
20240522013143 82 213 2.0 6.0 0.00 0.00 0.00 85 1010.5
20240522012642 83 157 2.0 5.0 0.00 0.00 0.00 84 1010.6
20240522012143 83 171 2.0 5.0 0.00 0.00 0.00 84 1010.6
20240522011644 83 166 1.0 5.0 0.00 0.00 0.00 84 1010.6
20240522011142 83 162 1.0 5.0 0.00 0.00 0.00 83 1010.6
20240522010642 83 195 2.0 5.0 0.00 0.00 0.00 83 1010.6
20240522010142 83 123 1.0 5.0 0.00 0.00 0.00 83 1010.6
20240522005644 83 97 2.0 6.0 0.00 0.00 0.00 82 1010.5
20240522005143 84 138 2.0 6.0 0.00 0.00 0.00 82 1010.3
20240522004643 84 145 1.0 3.0 0.00 0.00 0.00 82 1010.3
20240522004142 84 178 1.0 3.0 0.00 0.00 0.00 82 1010.2
20240522003641 85 180 1.0 4.0 0.00 0.00 0.00 81 1010.1
20240522003141 85 93 1.0 4.0 0.00 0.00 0.00 81 1010.1
20240522002642 85 182 1.0 6.0 0.00 0.00 0.00 81 1010.2
20240522002142 85 203 2.0 9.0 0.00 0.00 0.00 80 1010.0
20240522001642 85 159 2.0 9.0 0.00 0.00 0.00 80 1009.8
20240522001140 86 168 2.0 5.0 0.00 0.00 0.00 80 1009.7
20240522000641 86 157 1.0 5.0 0.00 0.00 0.00 79 1009.7
20240522000140 87 162 2.0 5.0 0.00 0.00 0.00 77 1009.6
20240521235642 87 147 2.0 5.0 0.00 0.00 0.00 75 1009.7
20240521235141 87 164 2.0 6.0 0.00 0.00 0.00 73 1009.8
20240521234640 88 189 1.0 6.0 0.00 0.00 0.00 73 1009.8
20240521234141 88 162 1.0 5.0 0.00 0.00 0.00 73 1009.8
20240521233638 88 134 1.0 3.0 0.00 0.00 0.00 73 1009.8
20240521233141 88 219 1.0 4.0 0.00 0.00 0.00 73 1009.8
20240521232640 88 186 1.0 6.0 0.00 0.00 0.00 72 1009.7
20240521232140 89 158 2.0 6.0 0.00 0.00 0.00 71 1009.7
20240521231640 89 159 0.0 5.0 0.00 0.00 0.00 72 1009.6
20240521231139 89 164 2.0 5.0 0.00 0.00 0.00 71 1009.6
20240521230639 89 179 2.0 5.0 0.00 0.00 0.00 71 1009.6
20240521230139 89 182 1.0 7.0 0.00 0.00 0.00 72 1009.7
20240521225639 89 180 3.0 7.0 0.00 0.00 0.00 70 1009.7
20240521225139 89 212 3.0 6.0 0.00 0.00 0.00 71 1009.6
20240521224638 89 171 2.0 10.0 0.00 0.00 0.00 70 1009.6
20240521224139 89 189 2.0 10.0 0.00 0.00 0.00 71 1009.6
20240521223638 89 172 2.0 12.0 0.00 0.00 0.00 71 1009.7
20240521223138 90 137 5.0 12.0 0.00 0.00 0.00 70 1009.6
20240521222638 90 188 4.0 13.0 0.00 0.00 0.00 69 1009.5
20240521222138 90 175 4.0 13.0 0.00 0.00 0.00 69 1009.5
20240521221639 91 183 2.0 12.0 0.00 0.00 0.00 69 1009.4
20240521221138 90 127 4.0 12.0 0.00 0.00 0.00 69 1009.6
20240521220638 90 196 2.0 9.0 0.00 0.00 0.00 69 1009.5
20240521220139 91 165 3.0 7.0 0.00 0.00 0.00 69 1009.5
20240521215637 91 185 2.0 12.0 0.00 0.00 0.00 70 1009.5
20240521215137 91 168 2.0 12.0 0.00 0.00 0.00 70 1009.5
20240521214638 91 144 3.0 12.0 0.00 0.00 0.00 70 1009.5
20240521214138 91 162 5.0 12.0 0.00 0.00 0.00 69 1009.4
20240521213638 91 189 3.0 7.0 0.00 0.00 0.00 69 1009.4
20240521213138 90 161 3.0 7.0 0.00 0.00 0.00 69 1009.7
20240521212638 90 188 2.0 7.0 0.00 0.00 0.00 71 1009.7
20240521212138 91 162 2.0 7.0 0.00 0.00 0.00 68 1009.8
20240521211636 92 185 2.0 7.0 0.00 0.00 0.00 70 1009.8
20240521211137 91 89 3.0 11.0 0.00 0.00 0.00 69 1009.9
20240521210639 91 172 4.0 11.0 0.00 0.00 0.00 68 1009.9
20240521210137 92 147 2.0 12.0 0.00 0.00 0.00 67 1009.9
20240521205638 92 158 4.0 12.0 0.00 0.00 0.00 67 1009.8
20240521205136 91 157 6.0 12.0 0.00 0.00 0.00 68 1010.0
20240521204636 92 176 6.0 12.0 0.00 0.00 0.00 67 1009.9
20240521204136 92 186 3.0 10.0 0.00 0.00 0.00 69 1010.0
20240521203636 91 154 4.0 10.0 0.00 0.00 0.00 70 1010.1
20240521203136 90 165 2.0 6.0 0.00 0.00 0.00 70 1010.2
20240521202636 91 140 2.0 7.0 0.00 0.00 0.00 71 1010.2
20240521202136 91 104 3.0 13.0 0.00 0.00 0.00 70 1010.4
20240521201636 91 196 7.0 13.0 0.00 0.00 0.00 68 1010.4
20240521201135 92 188 5.0 11.0 0.00 0.00 0.00 68 1010.3
20240521200635 91 179 3.0 12.0 0.00 0.00 0.00 70 1010.5
20240521200135 90 162 2.0 12.0 0.00 0.00 0.00 70 1010.4
20240521195637 90 161 2.0 6.0 0.00 0.00 0.00 70 1010.4
20240521195136 90 123 3.0 11.0 0.00 0.00 0.00 69 1010.4
20240521194635 91 206 2.0 13.0 0.00 0.00 0.00 69 1010.5
20240521194135 91 195 8.0 13.0 0.00 0.00 0.00 65 1010.4
20240521193634 91 199 3.0 12.0 0.00 0.00 0.00 68 1010.4
20240521193135 92 179 4.0 10.0 0.00 0.00 0.00 66 1010.5
20240521192634 91 180 5.0 10.0 0.00 0.00 0.00 68 1010.5
20240521192134 91 185 4.0 9.0 0.00 0.00 0.00 70 1010.7
20240521191634 91 171 3.0 11.0 0.00 0.00 0.00 71 1010.6
20240521191138 91 138 3.0 11.0 0.00 0.00 0.00 72 1010.7
20240521190634 90 154 3.0 10.0 0.00 0.00 0.00 71 1010.6
20240521190133 90 152 3.0 9.0 0.00 0.00 0.00 73 1010.7
20240521185634 90 158 2.0 7.0 0.00 0.00 0.00 72 1010.6
20240521185134 91 195 2.0 7.0 0.00 0.00 0.00 73 1010.8
20240521184634 89 166 3.0 6.0 0.00 0.00 0.00 74 1010.8
20240521184134 89 176 1.0 6.0 0.00 0.00 0.00 73 1010.9
20240521183634 89 196 2.0 9.0 0.00 0.00 0.00 72 1010.9
20240521183134 89 179 3.0 9.0 0.00 0.00 0.00 70 1010.9
20240521182633 90 203 2.0 12.0 0.00 0.00 0.00 70 1010.9
20240521182133 90 193 6.0 12.0 0.00 0.00 0.00 70 1011.0
20240521181633 90 195 2.0 9.0 0.00 0.00 0.00 71 1011.1
20240521181132 89 199 4.0 9.0 0.00 0.00 0.00 71 1011.2
20240521180632 89 151 4.0 9.0 0.00 0.00 0.00 71 1011.2
20240521180132 90 204 4.0 11.0 0.00 0.00 0.00 70 1011.2
20240521175633 90 182 2.0 13.0 0.00 0.00 0.00 71 1011.4
20240521175132 91 204 5.0 13.0 0.00 0.00 0.00 71 1011.3
20240521174632 90 203 6.0 10.0 0.00 0.00 0.00 71 1011.5
20240521174133 90 197 1.0 10.0 0.00 0.00 0.00 71 1011.4
20240521173632 89 180 3.0 10.0 0.00 0.00 0.00 72 1011.6
20240521173130 90 206 2.0 9.0 0.00 0.00 0.00 73 1011.6
20240521172631 89 185 4.0 7.0 0.00 0.00 0.00 75 1011.6
20240521172131 89 185 3.0 6.0 0.00 0.00 0.00 75 1011.6
20240521171631 88 203 4.0 6.0 0.00 0.00 0.00 74 1011.7
20240521171130 89 199 1.0 5.0 0.00 0.00 0.00 73 1011.6
20240521170633 89 176 2.0 6.0 0.00 0.00 0.00 75 1011.8
20240521170131 88 183 2.0 11.0 0.00 0.00 0.00 75 1011.9
20240521165631 88 142 4.0 11.0 0.00 0.00 0.00 75 1011.7
20240521165131 88 138 2.0 5.0 0.00 0.00 0.00 77 1011.8
20240521164632 87 185 1.0 7.0 0.00 0.00 0.00 76 1012.0
20240521164132 87 192 1.0 7.0 0.00 0.00 0.00 76 1012.0
20240521163633 87 213 3.0 7.0 0.00 0.00 0.00 75 1012.1
20240521163131 88 212 4.0 7.0 0.00 0.00 0.00 74 1012.1
20240521162632 87 180 2.0 10.0 0.00 0.00 0.00 76 1012.1
20240521162130 87 176 4.0 10.0 0.00 0.00 0.00 76 1012.0
20240521161632 86 176 3.0 9.0 0.00 0.00 0.00 76 1012.1
20240521161130 87 185 5.0 9.0 0.00 0.00 0.00 75 1012.1
20240521160630 87 135 2.0 7.0 0.00 0.00 0.00 77 1012.1
20240521160131 87 183 4.0 10.0 0.00 0.00 0.00 75 1012.0
20240521155629 87 185 4.0 10.0 0.00 0.00 0.00 77 1012.0
20240521155129 86 186 5.0 10.0 0.00 0.00 0.00 77 1012.0
20240521154629 86 175 4.0 10.0 0.00 0.00 0.00 78 1011.9
20240521154132 85 224 5.0 10.0 0.00 0.00 0.00 79 1011.9
20240521153629 85 180 5.0 10.0 0.00 0.00 0.00 80 1011.8